LVWOR SAZS-SAHZ

Flight info

Callsign LVWOR
Flight time N/A
Altitude 23000
Route CHATO1C CHATO W44 SIPUG
Aircraft BE20/L-SBGRY/S

Departure

Time 2026-04-24 21:43
Airport Teniente Luis Candelaria International Airport (SAZS)

Arrival

Time N/A
Airport Zapala Airport (SAHZ)
Time Latitude Longitude Altitude Speed Heading
2026-04-24 21:32 -41.14767 -71.16132 2745 ft 0 kts 96°
2026-04-24 21:39 -41.14768 -71.16130 2744 ft 1 kts 121°
2026-04-24 21:39 -41.14791 -71.16136 2745 ft 8 kts 187°
2026-04-24 21:39 -41.14856 -71.16061 2745 ft 18 kts 121°
2026-04-24 21:40 -41.14916 -71.15873 2745 ft 26 kts 109°
2026-04-24 21:40 -41.15000 -71.15626 2744 ft 33 kts 116°
2026-04-24 21:40 -41.15090 -71.15370 2744 ft 29 kts 114°
2026-04-24 21:40 -41.15183 -71.15104 2744 ft 35 kts 114°
2026-04-24 21:41 -41.15293 -71.14795 2745 ft 37 kts 114°
2026-04-24 21:41 -41.15375 -71.14552 2745 ft 19 kts 114°
2026-04-24 21:41 -41.15432 -71.14466 2744 ft 19 kts 181°
2026-04-24 21:41 -41.15499 -71.14503 2745 ft 0 kts 206°
2026-04-24 21:42 -41.15500 -71.14504 2745 ft 1 kts 206°
2026-04-24 21:42 -41.15535 -71.14540 2744 ft 10 kts 263°
2026-04-24 21:42 -41.15454 -71.14792 2746 ft 58 kts 295°
2026-04-24 21:42 -41.15203 -71.15510 2745 ft 111 kts 295°
2026-04-24 21:43 -41.14823 -71.16613 2765 ft 152 kts 295°
2026-04-24 21:43 -41.14395 -71.17876 3482 ft 132 kts 293°
2026-04-24 21:43 -41.14040 -71.19017 4111 ft 139 kts 287°
2026-04-24 21:43 -41.13823 -71.20290 4677 ft 145 kts 279°
2026-04-24 21:44 -41.13790 -71.21653 5199 ft 151 kts 259°
2026-04-24 21:44 -41.14322 -71.22820 5613 ft 158 kts 214°
2026-04-24 21:44 -41.15418 -71.23370 5674 ft 180 kts 199°
2026-04-24 21:44 -41.16674 -71.23611 5813 ft 187 kts 180°
2026-04-24 21:45 -41.17938 -71.23063 5756 ft 203 kts 148°
2026-04-24 21:45 -41.18835 -71.21504 5621 ft 218 kts 112°
2026-04-24 21:45 -41.19167 -71.19608 5868 ft 206 kts 102°
2026-04-24 21:45 -41.19526 -71.17715 5855 ft 215 kts 108°
2026-04-24 21:46 -41.20020 -71.15827 5931 ft 216 kts 112°
2026-04-24 21:46 -41.20542 -71.13972 6098 ft 214 kts 112°
2026-04-24 21:46 -41.21037 -71.12071 6097 ft 221 kts 109°
2026-04-24 21:46 -41.21481 -71.10119 6008 ft 220 kts 107°
2026-04-24 21:47 -41.21874 -71.08107 5540 ft 229 kts 103°
2026-04-24 21:47 -41.21663 -71.06064 5067 ft 232 kts 54°
2026-04-24 21:47 -41.20432 -71.04884 4740 ft 215 kts
2026-04-24 21:47 -41.19054 -71.05138 4455 ft 195 kts 324°
2026-04-24 21:48 -41.18285 -71.06516 3996 ft 187 kts 292°
2026-04-24 21:48 -41.17794 -71.08078 3749 ft 180 kts 295°
2026-04-24 21:48 -41.17275 -71.09564 3482 ft 173 kts 296°
2026-04-24 21:48 -41.16771 -71.10961 3288 ft 162 kts 295°
2026-04-24 21:49 -41.16337 -71.12230 3090 ft 139 kts 297°
2026-04-24 21:49 -41.15978 -71.13282 2955 ft 116 kts 292°
2026-04-24 21:49 -41.15638 -71.14261 2839 ft 118 kts 294°
2026-04-24 21:49 -41.15304 -71.15218 2758 ft 107 kts 295°
2026-04-24 21:50 -41.15025 -71.16017 2749 ft 87 kts 295°
2026-04-24 21:50 -41.14900 -71.16330 2749 ft 19 kts 345°
2026-04-24 21:50 -41.14802 -71.16286 2745 ft 1 kts 26°
2026-04-24 21:50 -41.14778 -71.16287 2745 ft 8 kts 322°
2026-04-24 21:51 -41.14754 -71.16348 2745 ft 1 kts 295°
2026-04-24 21:51 -41.14753 -71.16349 2745 ft 2 kts 295°